Showing default

PEARL-1B, 68980

Orbit data source: Space-Track

PEARL-1B, 68980 is a Taiwanese payload satellite in SSO that was launched on Sun, 03 May 2026 UTC via an FALCON 9 launch vehicle from the Air Force Western Test Range (AFWTR). Payload-class satellites include a variety of spacecraft equipped with specific instruments for various scientific and technological missions. These include communications satellites like Starlink; space stations such as the ISS; scientific satellites like the Hubble; Earth observation satellites from companies like Planet Labs, Umbra, and HawkEye 360; GPS; miniature CubeSats for education and research; and military/defense satellites.

Loading next visibility...
Identifier
68980, 2026-100A
Orbit
SSO
Country
Flag of TWTW / TWN
Related business
Manufacturer
Endurosat
Mission
Operational spacecraft
Bus & Motor
CUBESAT 6UXL, Unknown motor
Mass
8.8 kg wet, 8.8 kg dry
Launch date (UTC)
2026-05-03 (1 month ago)
Launch vehicle
FALCON 9
Launch site
Air Force Western Test Range (AFWTR)
Object type
Payload
Rocket body
Debris
Shape & HBR
Unknown shape, 14.5 m
Radar Cross Section
Medium (>0.1 m² and <1 m²)

Expand to show TLE details & history
Last TLE update: 10 hours ago

TLE from 10 hours ago
0 PEARL-1B
1 68980U 26100A   26168.64795631  .00001572  00000-0  16625-3 0  9992
2 68980  97.7365  66.0118 0008230 136.1882 223.9990 14.90565290  6757
Epoch: 2026-06-17T15:33Z
TLE epoch observation values (Epoch: 2026-06-17T15:33:03.425Z)
Latitude
-0.00004°
Longitude
-73.15509°
Altitude
603.345 km
Speed
7.556 km/s
True Right ascension
04h 24m 02s
True Declination
0° 00' 00"
Sunlit
Object was in daylight at epoch
Visualization orbit readout
Latitude
Unknown
Longitude
Unknown
Altitude
Unknown
Speed
Unknown
Apparent Right ascension
Unknown
Apparent Declination
Unknown
Sunlit
N/A
Visualization observer readout
Local Sidereal Time
12:15:16
Azimuth
Unknown
Elevation
Unknown
Doppler factor
Unknown
Orbital elements
Apogee altitude
598.929 km
Perigee altitude
587.454 km
Semi-major axis
6,971.328 km
Eccentricity
0.00082
Inclination
97.7365°
RAAN
66.0118°
Arg. of periapsis
136.1882°
True anomaly
223.93354°
Mean anomaly
223.999°
Eccentric anomaly
223.96626°
Mean motion
3.72881 °/min
Orbital period
96.55 mins
BSTAR
0.00016625
Loading maneuver chart data...
Computing Atmospheric mass density...
Loading historical data...
Loading historical data...
Loading historical data...
Loading historical data...
Loading historical data...
Loading historical data...
Loading historical data...

Documentation

Showing up to 5 results
|